Location: Alto Pass Reservoir
(37.5801°N, 89.3084°W)
Time: 06:11:22
(UTC+00:00)

Cosmos 1570 Rocket - Visible Passes

Search period start: 28 June 2022 00:00
Search period end: 08 July 2022 00:00
Orbit: 763 x 787 km, 74.1° (Epoch: 27 June)

Date Brightness Start Highest point End Pass type
(mag) Time Alt. Az. Time Alt. Az. Time Alt. Az.
28 Jun 4.0 09:29:36 12° SSW 09:34:25 83° WNW 09:39:41 10° NNE visible
29 Jun 4.4 08:55:44 17° S 08:59:35 58° ESE 09:04:43 10° NNE visible
30 Jun 5.3 08:21:49 19° SSE 08:24:49 34° E 08:29:30 10° NE visible
30 Jun 5.3 10:02:41 10° WSW 10:07:02 26° WNW 10:11:25 10° N visible
01 Jul 6.0 07:47:53 15° SE 07:50:09 20° E 07:53:55 10° NE visible
01 Jul 4.6 09:28:18 17° SW 09:31:59 42° WNW 09:36:58 10° N visible
02 Jul 6.4 07:13:54 10° ESE 07:15:33 11° E 07:17:13 10° ENE visible
02 Jul 4.0 08:54:19 29° SSW 08:57:01 71° WNW 09:02:16 10° NNE visible
03 Jul 4.1 08:20:18 39° S 08:22:10 69° ESE 08:27:23 10° NNE visible
03 Jul 6.0 10:02:08 10° W 10:04:54 14° WNW 10:07:40 10° NNW visible
04 Jul 4.8 07:46:14 35° SE 07:47:22 40° ESE 07:52:15 10° NNE visible
04 Jul 5.5 09:26:40 14° WSW 09:29:43 23° WNW 09:33:49 10° N visible
05 Jul 5.6 07:12:09 23° ESE 07:12:41 24° E 07:16:47 10° NE visible
05 Jul 4.8 08:52:34 26° WSW 08:54:37 36° WNW 08:59:28 10° N visible
06 Jul 6.2 06:38:02 14° E 06:38:03 14° E 06:40:38 10° ENE visible
06 Jul 4.1 08:18:27 48° WSW 08:19:38 61° WNW 08:24:51 10° N visible
07 Jul 3.8 07:44:18 73° SSE 07:44:44 81° ESE 07:50:01 10° NNE visible
07 Jul 6.1 09:25:31 10° W 09:27:37 12° NW 09:29:43 10° NNW visible
